This demonstration page uses our WeatherBlox Daily Observations layout. Learn more.

Left ArrowRight Arrow

Hourly Observations for October 18, 2020

Temp ( °F °C ) Dew Point ( °F °C ) Humidity (%) Winds ( mph kmh ) Pressure ( in mb ) Visibility ( mi km ) Precip ( " mm )
12:15 am 00:15 Partly Cloudy 52 11 36 2 54 54 SSE 10 17 30.16 1021 10 16 N/A
12:35 am 00:35 Partly Cloudy 50 10 36 2 58 58 S 12 19 30.15 1021 10 16 N/A
12:55 am 00:55 Partly Cloudy 50 10 36 2 58 58 SSE 10 17 30.15 1021 10 16 N/A
1:15 am 01:15 Partly Cloudy 50 10 36 2 58 58 S 9 15 30.15 1021 10 16 N/A
1:35 am 01:35 Partly Cloudy 50 10 36 2 58 58 SSE 10 17 30.14 1021 10 16 N/A
1:55 am 01:55 Mostly Cloudy 50 10 36 2 58 58 S 12 19 30.15 1021 10 16 N/A
2:15 am 02:15 Cloudy 50 10 36 2 58 58 S 12 19 30.13 1020 10 16 N/A
2:35 am 02:35 Cloudy 50 10 36 2 58 58 S 10 17 30.13 1020 10 16 N/A
2:55 am 02:55 Cloudy 50 10 36 2 58 58 SSE 10 17 30.12 1020 10 16 N/A
3:15 am 03:15 Cloudy 50 10 36 2 58 58 S 10 17 30.13 1020 10 16 N/A
3:35 am 03:35 Cloudy 50 10 36 2 58 58 S 12 19 30.13 1020 10 16 N/A
3:55 am 03:55 Cloudy 50 10 36 2 58 58 S 9 15 30.12 1020 10 16 N/A
4:15 am 04:15 Cloudy 50 10 36 2 58 58 SSE 10 17 30.11 1020 10 16 N/A
4:35 am 04:35 Cloudy 50 10 36 2 58 58 SSE 10 17 30.10 1019 10 16 N/A
4:55 am 04:55 Cloudy 50 10 37 3 62 62 S 8 13 30.11 1020 10 16 N/A
5:15 am 05:15 Cloudy 50 10 37 3 62 62 S 7 11 30.12 1020 10 16 N/A
5:35 am 05:35 Cloudy 50 10 37 3 62 62 S 6 9 30.13 1020 10 16 N/A
5:55 am 05:55 Cloudy 50 10 37 3 62 62 S 8 13 30.13 1020 10 16 N/A
6:15 am 06:15 Cloudy 50 10 39 4 67 67 S 8 13 30.12 1020 10 16 N/A
6:35 am 06:35 Cloudy 50 10 37 3 62 62 S 8 13 30.12 1020 10 16 N/A
6:55 am 06:55 Cloudy 50 10 39 4 67 67 S 7 11 30.13 1020 10 16 N/A
7:15 am 07:15 Cloudy 50 10 39 4 67 67 S 6 9 30.12 1020 10 16 N/A
7:35 am 07:35 Cloudy 50 10 39 4 67 67 SSE 9 15 30.11 1020 10 16 N/A
7:55 am 07:55 Cloudy 50 10 39 4 67 67 SSE 9 15 30.11 1020 10 16 N/A
8:15 am 08:15 Cloudy 50 10 39 4 67 67 SSE 9 15 30.10 1019 10 16 N/A
8:35 am 08:35 Cloudy 50 10 39 4 67 67 SSE 9 15 30.11 1020 10 16 N/A
8:55 am 08:55 Cloudy 50 10 41 5 71 71 S 8 13 30.12 1020 10 16 N/A
9:15 am 09:15 Cloudy 50 10 43 6 76 76 SSE 7 11 30.12 1020 10 16 N/A
9:35 am 09:35 Cloudy 48 9 45 7 87 87 S 7 11 30.13 1020 10 16 N/A
9:55 am 09:55 Cloudy 50 10 45 7 82 82 S 9 15 30.14 1021 10 16 N/A
10:15 am 10:15 Cloudy 50 10 45 7 82 82 S 10 17 30.15 1021 10 16 N/A
10:35 am 10:35 Cloudy 50 10 46 8 88 88 S 8 13 30.15 1021 10 16 N/A
10:55 am 10:55 Cloudy 52 11 46 8 82 82 S 9 15 30.14 1021 10 16 N/A
11:15 am 11:15 Cloudy 52 11 46 8 82 82 S 12 19 30.15 1021 10 16 N/A
11:35 am 11:35 Cloudy 52 11 46 8 82 82 S 10 17 30.15 1021 10 16 N/A
11:55 am 11:55 Cloudy 54 12 48 9 82 82 S 10 17 30.13 1020 10 16 N/A
12:15 pm 12:15 Cloudy 55 13 48 9 77 77 S 12 19 30.14 1021 10 16 N/A
12:35 pm 12:35 Cloudy 55 13 50 10 82 82 SSW 13 20 30.13 1020 10 16 N/A
12:55 pm 12:55 Cloudy 57 14 50 10 77 77 SSW 13 20 30.12 1020 10 16 N/A
1:15 pm 13:15 Cloudy 57 14 50 10 77 77 SW 15 24 30.12 1020 10 16 N/A
1:35 pm 13:35 Cloudy 59 15 52 11 77 77 SSW 13 20 30.10 1019 10 16 N/A
1:55 pm 13:55 Cloudy 59 15 52 11 77 77 SSW 14 22 30.09 1019 10 16 N/A
2:15 pm 14:15 Cloudy 61 16 52 11 72 72 SSW 14 22 30.09 1019 10 16 N/A
2:35 pm 14:35 Mostly Cloudy 63 17 52 11 68 68 SSW 14 22 30.10 1019 10 16 N/A
2:55 pm 14:55 Cloudy 63 17 50 10 64 64 SSW 14 22 30.09 1019 10 16 N/A
3:15 pm 15:15 Cloudy 63 17 50 10 64 64 SSW 10 17 30.09 1019 10 16 N/A
3:35 pm 15:35 Cloudy 63 17 52 11 68 68 SSW 10 17 30.08 1019 10 16 N/A
3:55 pm 15:55 Cloudy 63 17 50 10 64 64 SSW 9 15 30.08 1019 10 16 N/A
4:15 pm 16:15 Cloudy 63 17 52 11 68 68 SSW 9 15 30.09 1019 10 16 N/A
4:35 pm 16:35 Mostly Cloudy 63 17 52 11 68 68 SSW 13 20 30.10 1019 10 16 N/A
4:55 pm 16:55 Partly Cloudy 63 17 50 10 64 64 WSW 12 19 30.11 1020 10 16 N/A
5:15 pm 17:15 Mostly Cloudy 63 17 52 11 68 68 SSW 9 15 30.11 1020 10 16 N/A
5:35 pm 17:35 Cloudy 61 16 50 10 68 68 SSW 9 15 30.11 1020 10 16 N/A
5:55 pm 17:55 Cloudy 61 16 50 10 68 68 SSW 8 13 30.10 1019 10 16 N/A
6:15 pm 18:15 Cloudy 61 16 50 10 68 68 SW 5 7 30.11 1020 10 16 N/A
6:35 pm 18:35 Cloudy 61 16 52 11 72 72 S 5 7 30.12 1020 10 16 N/A
6:55 pm 18:55 Mostly Cloudy 59 15 52 11 77 77 S 5 7 30.11 1020 10 16 N/A
7:15 pm 19:15 Partly Cloudy 57 14 50 10 77 77 S 3 6 30.13 1020 10 16 N/A
7:35 pm 19:35 Mostly Cloudy 57 14 52 11 82 82 S 5 7 30.14 1021 10 16 N/A
7:55 pm 19:55 Cloudy 57 14 52 11 82 82 SSE 5 7 30.14 1021 10 16 N/A
8:15 pm 20:15 Cloudy 55 13 48 9 77 77 NNW 10 17 30.14 1021 10 16 N/A
8:35 pm 20:35 Mostly Cloudy 54 12 48 9 82 82 N 13 20 30.16 1021 10 16 N/A
8:55 pm 20:55 Cloudy 54 12 50 10 88 88 NNW 9 15 30.19 1022 10 16 N/A
9:15 pm 21:15 Cloudy 52 11 50 10 94 94 NNW 12 19 30.20 1023 10 16 N/A
9:35 pm 21:35 Cloudy 50 10 50 10 100 100 N 12 19 30.19 1022 10 16 N/A
9:55 pm 21:55 Cloudy 50 10 50 10 100 100 N 9 15 30.20 1023 10 16 N/A
10:15 pm 22:15 Cloudy 50 10 50 10 100 100 N 6 9 30.21 1023 10 16 N/A
10:35 pm 22:35 Cloudy 50 10 50 10 100 100 N 5 7 30.22 1023 10 16 N/A
10:55 pm 22:55 Cloudy 48 9 48 9 100 100 N N/A 30.22 1023 10 16 N/A
11:15 pm 23:15 Cloudy 48 9 48 9 100 100 N 6 9 30.21 1023 10 16 N/A
11:35 pm 23:35 Cloudy 48 9 48 9 100 100 NNE 5 7 30.21 1023 10 16 N/A
11:55 pm 23:55 Cloudy 48 9 48 9 100 100 NE 3 6 30.21 1023 10 16 N/A

Powered by AerisWeather